sat.trackr.live / text

‹ back to catalog

STARLINK-35648

NORAD 66482 · 2025-262AC

PAYLOAD ACTIVE UNKNOWN

§ Identity

Operator
Country
US
Launch date
2025-11-15
Launch site
AFETR
Launch vehicle
Mass (kg)
RCS (m²)

Purposes: comms

External: N2YO · Heavens-Above · Gunter

§ Orbital elements

Epoch: 2026-05-24T16:57:50.106816Z

Period
94.26 min
Inclination
42.9995°
Eccentricity
0.0001806
Mean motion
15.27623241 rev/d
Perigee alt
481.7 km
Apogee alt
484.2 km
Semi-major
6,861.1 km
B*
7.3950e-4
RAAN
226.7365°
Arg perigee
270.7894°
Mean anomaly
89.2751°
Rev number
3,037

§ Raw data

STARLINK-356481 66482U 25262AC  26144.70682994  .00020170  00000+0  73950-3 0  99912 66482  42.9995 226.7365 0001806 270.7894  89.2751 15.27623241 30377

JSON: /api/v1/satellites/66482 · /tle

For live sub-satellite position, see the globe view (requires WebGL).

§ Visibility from observer

Set your observer location to see the next 7 days of passes ≥ 10°. The values pass through the URL so the page stays shareable.

No JS? Fill the form by hand. The geolocation button needs JavaScript.